Time,TemperatureF,DewpointF,PressureIn,WindDirection,WindDirectionDegrees,WindSpeedMPH,WindSpeedGustMPH,Humidity,HourlyPrecipIn,Conditions,Clouds,dailyrainin,SoftwareType,DateUTC
2013-05-02 00:03:00,66.0,45.0,-100.00,SE,128,1.0,12.0,49,0.00,,,-99.99,,2013-05-02 04:03:00,
2013-05-02 00:12:00,66.0,45.0,-100.00,South,172,1.0,12.0,47,0.00,,,-99.99,,2013-05-02 04:12:00,
2013-05-02 00:23:00,66.0,45.0,-100.00,SE,129,2.0,12.0,47,0.00,,,-99.99,,2013-05-02 04:23:00,
2013-05-02 00:33:00,67.0,45.0,-100.00,SE,136,1.0,1.0,46,0.00,,,-99.99,,2013-05-02 04:33:00,
2013-05-02 00:43:00,67.0,41.0,-100.00,SSE,155,2.0,2.0,42,0.00,,,-99.99,,2013-05-02 04:43:00,
2013-05-02 00:52:00,66.0,41.0,-100.00,SE,139,2.0,2.0,42,0.00,,,-99.99,,2013-05-02 04:52:00,
2013-05-02 01:02:00,65.0,41.0,-100.00,ESE,118,2.0,2.0,42,0.00,,,-99.99,,2013-05-02 05:02:00,
2013-05-02 01:12:00,65.0,41.0,-100.00,ESE,108,3.0,4.0,42,0.00,,,-99.99,,2013-05-02 05:12:00,
2013-05-02 01:22:00,64.0,39.0,-100.00,ESE,105,2.0,4.0,41,0.00,,,-99.99,,2013-05-02 05:22:00,
2013-05-02 01:32:00,65.0,39.0,-100.00,SSE,166,3.0,4.0,41,0.00,,,-99.99,,2013-05-02 05:32:00,
2013-05-02 01:42:00,64.0,39.0,-100.00,ESE,115,2.0,4.0,42,0.00,,,-99.99,,2013-05-02 05:42:00,
2013-05-02 01:52:00,64.0,39.0,-100.00,South,186,2.0,4.0,41,0.00,,,-99.99,,2013-05-02 05:52:00,
2013-05-02 02:01:00,63.0,37.0,-100.00,SSE,149,2.0,4.0,41,0.00,,,-99.99,,2013-05-02 06:01:00,
2013-05-02 02:12:00,63.0,37.0,-100.00,SE,128,4.0,6.0,40,0.00,,,-99.99,,2013-05-02 06:12:00,
2013-05-02 02:22:00,63.0,36.0,-100.00,ESE,110,4.0,6.0,38,0.00,,,-99.99,,2013-05-02 06:22:00,
2013-05-02 02:32:00,63.0,36.0,-100.00,SE,134,3.0,6.0,37,0.00,,,-99.99,,2013-05-02 06:32:00,
2013-05-02 02:42:00,63.0,36.0,-100.00,SE,129,4.0,6.0,37,0.00,,,-99.99,,2013-05-02 06:42:00,
2013-05-02 02:52:00,64.0,36.0,-100.00,SE,129,3.0,6.0,36,0.00,,,-99.99,,2013-05-02 06:52:00,
2013-05-02 03:02:00,62.0,34.0,-100.00,South,182,3.0,6.0,36,0.00,,,-99.99,,2013-05-02 07:02:00,
2013-05-02 03:11:00,62.0,34.0,-100.00,SSE,156,2.0,6.0,37,0.00,,,-99.99,,2013-05-02 07:11:00,
2013-05-02 03:21:00,61.0,34.0,-100.00,SE,144,2.0,6.0,38,0.00,,,-99.99,,2013-05-02 07:21:00,
2013-05-02 03:32:00,61.0,34.0,-100.00,SSE,159,2.0,6.0,38,0.00,,,-99.99,,2013-05-02 07:32:00,
2013-05-02 03:42:00,61.0,36.0,-100.00,SSE,159,2.0,6.0,40,0.00,,,-99.99,,2013-05-02 07:42:00,
2013-05-02 03:52:00,61.0,34.0,-100.00,South,176,3.0,6.0,38,0.00,,,-99.99,,2013-05-02 07:52:00,
2013-05-02 04:02:00,61.0,36.0,-100.00,SSE,168,2.0,6.0,40,0.00,,,-99.99,,2013-05-02 08:02:00,
2013-05-02 04:11:00,60.0,36.0,-100.00,South,184,2.0,6.0,40,0.00,,,-99.99,,2013-05-02 08:11:00,
2013-05-02 04:22:00,60.0,36.0,-100.00,SSE,148,2.0,6.0,40,0.00,,,-99.99,,2013-05-02 08:22:00,
2013-05-02 04:32:00,60.0,36.0,-100.00,SSW,197,2.0,6.0,40,0.00,,,-99.99,,2013-05-02 08:32:00,
2013-05-02 04:42:00,60.0,34.0,-100.00,South,189,3.0,6.0,40,0.00,,,-99.99,,2013-05-02 08:42:00,
2013-05-02 04:52:00,59.0,34.0,-100.00,SE,146,2.0,6.0,40,0.00,,,-99.99,,2013-05-02 08:52:00,
2013-05-02 05:02:00,59.0,34.0,-100.00,ESE,110,2.0,6.0,41,0.00,,,-99.99,,2013-05-02 09:02:00,
2013-05-02 05:12:00,59.0,34.0,-100.00,SE,138,3.0,6.0,41,0.00,,,-99.99,,2013-05-02 09:12:00,
2013-05-02 05:21:00,59.0,36.0,-100.00,ESE,120,2.0,6.0,42,0.00,,,-99.99,,2013-05-02 09:21:00,
2013-05-02 05:33:00,58.0,34.0,-100.00,South,186,2.0,6.0,42,0.00,,,-99.99,,2013-05-02 09:33:00,
2013-05-02 05:42:00,58.0,34.0,-100.00,SSE,149,2.0,6.0,42,0.00,,,-99.99,,2013-05-02 09:42:00,
2013-05-02 05:52:00,59.0,36.0,-100.00,SE,134,2.0,6.0,42,0.00,,,-99.99,,2013-05-02 09:52:00,
2013-05-02 06:03:00,59.0,36.0,-100.00,South,172,3.0,6.0,42,0.00,,,-99.99,,2013-05-02 10:03:00,
2013-05-02 06:12:00,59.0,34.0,-100.00,ESE,114,4.0,6.0,41,0.00,,,-99.99,,2013-05-02 10:12:00,
2013-05-02 06:23:00,58.0,34.0,-100.00,South,180,4.0,6.0,42,0.00,,,-99.99,,2013-05-02 10:23:00,
2013-05-02 06:33:00,58.0,34.0,-100.00,ESE,120,4.0,6.0,42,0.00,,,-99.99,,2013-05-02 10:33:00,
2013-05-02 06:42:00,58.0,34.0,-100.00,ESE,114,5.0,6.0,42,0.00,,,-99.99,,2013-05-02 10:42:00,
2013-05-02 06:52:00,57.0,34.0,-100.00,SE,144,4.0,6.0,44,0.00,,,-99.99,,2013-05-02 10:52:00,
2013-05-02 07:02:00,57.0,34.0,-100.00,SE,132,2.0,6.0,44,0.00,,,-99.99,,2013-05-02 11:02:00,
2013-05-02 07:12:00,57.0,36.0,-100.00,ESE,120,3.0,6.0,45,0.00,,,-99.99,,2013-05-02 11:12:00,
2013-05-02 07:22:00,58.0,36.0,-100.00,SSE,148,3.0,6.0,44,0.00,,,-99.99,,2013-05-02 11:22:00,
2013-05-02 07:32:00,57.0,36.0,-100.00,South,173,3.0,6.0,45,0.00,,,-99.99,,2013-05-02 11:32:00,
2013-05-02 07:42:00,57.0,36.0,-100.00,South,175,3.0,6.0,45,0.00,,,-99.99,,2013-05-02 11:42:00,
2013-05-02 07:52:00,58.0,36.0,-100.00,SE,135,3.0,6.0,45,0.00,,,-99.99,,2013-05-02 11:52:00,
2013-05-02 08:01:00,59.0,36.0,-100.00,SE,124,3.0,6.0,44,0.00,,,-99.99,,2013-05-02 12:01:00,
2013-05-02 08:12:00,58.0,34.0,-100.00,South,180,6.0,8.0,42,0.00,,,-99.99,,2013-05-02 12:12:00,
2013-05-02 08:22:00,59.0,36.0,-100.00,SE,132,6.0,8.0,42,0.00,,,-99.99,,2013-05-02 12:22:00,
2013-05-02 08:32:00,59.0,36.0,-100.00,South,190,5.0,8.0,42,0.00,,,-99.99,,2013-05-02 12:32:00,
2013-05-02 08:42:00,59.0,34.0,-100.00,SE,128,6.0,8.0,41,0.00,,,-99.99,,2013-05-02 12:42:00,
2013-05-02 08:52:00,60.0,36.0,-100.00,South,179,4.0,8.0,42,0.00,,,-99.99,,2013-05-02 12:52:00,
2013-05-02 09:01:00,61.0,36.0,-100.00,South,172,4.0,8.0,42,0.00,,,-99.99,,2013-05-02 13:01:00,
2013-05-02 09:11:00,62.0,37.0,-100.00,SSW,200,4.0,8.0,41,0.00,,,-99.99,,2013-05-02 13:11:00,
2013-05-02 09:22:00,63.0,37.0,-100.00,SSE,148,4.0,8.0,40,0.00,,,-99.99,,2013-05-02 13:22:00,
2013-05-02 09:32:00,64.0,37.0,-100.00,ESE,120,2.0,8.0,40,0.00,,,-99.99,,2013-05-02 13:32:00,
2013-05-02 09:42:00,64.0,37.0,-100.00,East,101,4.0,8.0,40,0.00,,,-99.99,,2013-05-02 13:42:00,
2013-05-02 09:52:00,65.0,37.0,-100.00,SSE,156,6.0,8.0,37,0.00,,,-99.99,,2013-05-02 13:52:00,
2013-05-02 10:02:00,65.0,37.0,-100.00,SE,132,6.0,8.0,37,0.00,,,-99.99,,2013-05-02 14:02:00,
2013-05-02 10:11:00,66.0,39.0,-100.00,SSE,148,4.0,8.0,38,0.00,,,-99.99,,2013-05-02 14:11:00,
2013-05-02 10:22:00,67.0,37.0,-100.00,SSE,159,4.0,8.0,36,0.00,,,-99.99,,2013-05-02 14:22:00,
2013-05-02 10:32:00,67.0,37.0,-100.00,SSE,162,4.0,8.0,34,0.00,,,-99.99,,2013-05-02 14:32:00,
2013-05-02 10:43:00,68.0,37.0,-100.00,SE,145,4.0,8.0,34,0.00,,,-99.99,,2013-05-02 14:43:00,
2013-05-02 10:52:00,68.0,37.0,-100.00,ESE,105,5.0,8.0,34,0.00,,,-99.99,,2013-05-02 14:52:00,
2013-05-02 11:02:00,69.0,37.0,-100.00,South,175,4.0,8.0,33,0.00,,,-99.99,,2013-05-02 15:02:00,
2013-05-02 11:12:00,70.0,39.0,-100.00,SE,131,4.0,8.0,34,0.00,,,-99.99,,2013-05-02 15:12:00,
2013-05-02 11:22:00,70.0,39.0,-100.00,SE,146,5.0,8.0,33,0.00,,,-99.99,,2013-05-02 15:22:00,
2013-05-02 11:33:00,71.0,39.0,-100.00,WNW,295,6.0,8.0,33,0.00,,,-99.99,,2013-05-02 15:33:00,
2013-05-02 11:43:00,71.0,39.0,-100.00,SSE,163,6.0,8.0,32,0.00,,,-99.99,,2013-05-02 15:43:00,
2013-05-02 12:03:00,72.0,41.0,-100.00,South,183,2.0,8.0,33,0.00,,,-99.99,,2013-05-02 16:03:00,
2013-05-02 12:13:00,73.0,41.0,-100.00,South,176,2.0,8.0,32,0.00,,,-99.99,,2013-05-02 16:13:00,
2013-05-02 12:23:00,72.0,39.0,-100.00,South,179,5.0,8.0,32,0.00,,,-99.99,,2013-05-02 16:23:00,
2013-05-02 12:32:00,73.0,41.0,-100.00,East,80,5.0,8.0,33,0.00,,,-99.99,,2013-05-02 16:32:00,
2013-05-02 12:43:00,73.0,41.0,-100.00,ESE,108,3.0,8.0,33,0.00,,,-99.99,,2013-05-02 16:43:00,
2013-05-02 12:52:00,75.0,43.0,-100.00,SE,132,3.0,8.0,33,0.00,,,-99.99,,2013-05-02 16:52:00,
2013-05-02 13:02:00,74.0,41.0,-100.00,ESE,117,5.0,8.0,31,0.00,,,-99.99,,2013-05-02 17:02:00,
2013-05-02 13:12:00,74.0,43.0,-100.00,ESE,112,5.0,8.0,33,0.00,,,-99.99,,2013-05-02 17:12:00,
2013-05-02 13:22:00,74.0,43.0,-100.00,ESE,103,6.0,8.0,34,0.00,,,-99.99,,2013-05-02 17:22:00,
2013-05-02 13:32:00,75.0,43.0,-100.00,South,170,4.0,8.0,32,0.00,,,-99.99,,2013-05-02 17:32:00,
2013-05-02 13:42:00,74.0,41.0,-100.00,ESE,103,3.0,8.0,31,0.00,,,-99.99,,2013-05-02 17:42:00,
2013-05-02 13:52:00,76.0,43.0,-100.00,East,83,3.0,8.0,31,0.00,,,-99.99,,2013-05-02 17:52:00,
2013-05-02 14:01:00,76.0,43.0,-100.00,South,189,3.0,8.0,32,0.00,,,-99.99,,2013-05-02 18:01:00,
2013-05-02 14:12:00,76.0,43.0,-100.00,SSE,153,3.0,8.0,31,0.00,,,-99.99,,2013-05-02 18:12:00,
2013-05-02 14:22:00,77.0,43.0,-100.00,SE,135,2.0,8.0,31,0.00,,,-99.99,,2013-05-02 18:22:00,
2013-05-02 14:32:00,77.0,45.0,-100.00,ESE,122,4.0,8.0,34,0.00,,,-99.99,,2013-05-02 18:32:00,
2013-05-02 14:42:00,77.0,43.0,-100.00,ESE,111,5.0,8.0,31,0.00,,,-99.99,,2013-05-02 18:42:00,
2013-05-02 14:52:00,76.0,43.0,-100.00,South,170,5.0,8.0,32,0.00,,,-99.99,,2013-05-02 18:52:00,
2013-05-02 15:01:00,77.0,41.0,-100.00,SSE,155,3.0,8.0,29,0.00,,,-99.99,,2013-05-02 19:01:00,
2013-05-02 15:11:00,78.0,43.0,-100.00,East,98,2.0,8.0,29,0.00,,,-99.99,,2013-05-02 19:11:00,
2013-05-02 15:22:00,78.0,43.0,-100.00,East,81,2.0,8.0,29,0.00,,,-99.99,,2013-05-02 19:22:00,
2013-05-02 15:32:00,77.0,41.0,-100.00,ESE,112,5.0,8.0,29,0.00,,,-99.99,,2013-05-02 19:32:00,
2013-05-02 15:42:00,77.0,41.0,-100.00,SE,132,3.0,8.0,29,0.00,,,-99.99,,2013-05-02 19:42:00,
2013-05-02 15:52:00,78.0,43.0,-100.00,SSE,149,4.0,8.0,29,0.00,,,-99.99,,2013-05-02 19:52:00,
2013-05-02 16:02:00,78.0,41.0,-100.00,ENE,73,4.0,8.0,28,0.00,,,-99.99,,2013-05-02 20:02:00,
2013-05-02 16:11:00,79.0,41.0,-100.00,East,91,4.0,8.0,28,0.00,,,-99.99,,2013-05-02 20:11:00,
2013-05-02 16:22:00,79.0,43.0,-100.00,SE,145,6.0,10.0,28,0.00,,,-99.99,,2013-05-02 20:22:00,
2013-05-02 16:32:00,79.0,41.0,-100.00,SE,139,4.0,10.0,27,0.00,,,-99.99,,2013-05-02 20:32:00,
2013-05-02 16:42:00,79.0,37.0,-100.00,East,100,4.0,10.0,24,0.00,,,-99.99,,2013-05-02 20:42:00,
2013-05-02 16:52:00,79.0,37.0,-100.00,SE,138,4.0,10.0,24,0.00,,,-99.99,,2013-05-02 20:52:00,
2013-05-02 17:01:00,79.0,37.0,-100.00,ESE,115,6.0,10.0,24,0.00,,,-99.99,,2013-05-02 21:01:00,
2013-05-02 17:12:00,79.0,36.0,-100.00,East,98,4.0,10.0,22,0.00,,,-99.99,,2013-05-02 21:12:00,
2013-05-02 17:21:00,78.0,41.0,-100.00,ENE,62,4.0,10.0,28,0.00,,,-99.99,,2013-05-02 21:21:00,
2013-05-02 17:33:00,76.0,41.0,-100.00,East,88,4.0,10.0,29,0.00,,,-99.99,,2013-05-02 21:33:00,
2013-05-02 17:42:00,76.0,39.0,-100.00,NE,42,4.0,10.0,28,0.00,,,-99.99,,2013-05-02 21:42:00,
2013-05-02 17:53:00,75.0,39.0,-100.00,ENE,63,5.0,10.0,29,0.00,,,-99.99,,2013-05-02 21:53:00,
2013-05-02 18:03:00,76.0,39.0,-100.00,NNE,25,5.0,10.0,28,0.00,,,-99.99,,2013-05-02 22:03:00,
2013-05-02 18:12:00,75.0,39.0,-100.00,NE,38,3.0,10.0,29,0.00,,,-99.99,,2013-05-02 22:12:00,
2013-05-02 18:22:00,75.0,39.0,-100.00,NE,45,2.0,10.0,29,0.00,,,-99.99,,2013-05-02 22:22:00,
2013-05-02 18:32:00,76.0,41.0,-100.00,ENE,60,3.0,10.0,29,0.00,,,-99.99,,2013-05-02 22:32:00,
2013-05-02 18:42:00,76.0,39.0,-100.00,NE,49,2.0,10.0,28,0.00,,,-99.99,,2013-05-02 22:42:00,
2013-05-02 18:52:00,76.0,39.0,-100.00,East,84,2.0,10.0,28,0.00,,,-99.99,,2013-05-02 22:52:00,
2013-05-02 19:02:00,75.0,39.0,-100.00,North,4,2.0,10.0,29,0.00,,,-99.99,,2013-05-02 23:02:00,
2013-05-02 19:12:00,74.0,39.0,-100.00,ENE,67,1.0,10.0,29,0.00,,,-99.99,,2013-05-02 23:12:00,
2013-05-02 19:22:00,74.0,37.0,-100.00,NE,52,2.0,10.0,28,0.00,,,-99.99,,2013-05-02 23:22:00,
2013-05-02 19:32:00,74.0,37.0,-100.00,NE,50,2.0,10.0,28,0.00,,,-99.99,,2013-05-02 23:32:00,
2013-05-02 19:42:00,73.0,37.0,-100.00,ENE,57,2.0,10.0,28,0.00,,,-99.99,,2013-05-02 23:42:00,
2013-05-02 19:51:00,73.0,36.0,-100.00,NW,313,1.0,10.0,27,0.00,,,-99.99,,2013-05-02 23:51:00,
2013-05-02 20:01:00,71.0,37.0,-100.00,NE,46,1.0,10.0,29,0.00,,,-99.99,,2013-05-03 00:01:00,
2013-05-02 20:11:00,70.0,37.0,-100.00,NNE,28,1.0,10.0,31,0.00,,,-99.99,,2013-05-03 00:11:00,
2013-05-02 20:22:00,69.0,36.0,-100.00,ESE,117,1.0,10.0,29,0.00,,,-99.99,,2013-05-03 00:22:00,
2013-05-02 20:32:00,69.0,36.0,-100.00,East,90,1.0,10.0,31,0.00,,,-99.99,,2013-05-03 00:32:00,
2013-05-02 20:42:00,69.0,36.0,-100.00,NE,45,1.0,10.0,29,0.00,,,-99.99,,2013-05-03 00:42:00,
2013-05-02 20:52:00,68.0,36.0,-100.00,East,88,1.0,10.0,31,0.00,,,-99.99,,2013-05-03 00:52:00,
2013-05-02 21:01:00,67.0,36.0,-100.00,ENE,73,2.0,10.0,32,0.00,,,-99.99,,2013-05-03 01:01:00,
2013-05-02 21:11:00,67.0,36.0,-100.00,SSE,151,1.0,10.0,32,0.00,,,-99.99,,2013-05-03 01:11:00,
2013-05-02 21:21:00,66.0,34.0,-100.00,SSW,192,1.0,10.0,32,0.00,,,-99.99,,2013-05-03 01:21:00,
2013-05-02 21:32:00,65.0,36.0,-100.00,SSW,200,1.0,10.0,34,0.00,,,-99.99,,2013-05-03 01:32:00,
2013-05-02 21:42:00,65.0,37.0,-100.00,ESE,105,0.0,10.0,37,0.00,,,-99.99,,2013-05-03 01:42:00,
2013-05-02 21:52:00,62.0,36.0,-100.00,ENE,59,0.0,10.0,38,0.00,,,-99.99,,2013-05-03 01:52:00,
2013-05-02 22:01:00,62.0,36.0,-100.00,ENE,59,0.0,10.0,38,0.00,,,-99.99,,2013-05-03 02:01:00,
2013-05-02 22:11:00,64.0,36.0,-100.00,NNW,347,0.0,10.0,36,0.00,,,-99.99,,2013-05-03 02:11:00,
2013-05-02 22:22:00,65.0,34.0,-100.00,SW,228,0.0,10.0,34,0.00,,,-99.99,,2013-05-03 02:22:00,
2013-05-02 22:32:00,65.0,34.0,-100.00,SE,146,1.0,10.0,33,0.00,,,-99.99,,2013-05-03 02:32:00,
2013-05-02 22:42:00,65.0,34.0,-100.00,SSE,159,1.0,10.0,33,0.00,,,-99.99,,2013-05-03 02:42:00,
2013-05-02 22:52:00,66.0,34.0,-100.00,ESE,108,1.0,10.0,32,0.00,,,-99.99,,2013-05-03 02:52:00,
2013-05-02 23:01:00,65.0,32.0,-100.00,SE,145,0.0,10.0,31,0.00,,,-99.99,,2013-05-03 03:01:00,
2013-05-02 23:11:00,66.0,32.0,-100.00,South,179,1.0,10.0,29,0.00,,,-99.99,,2013-05-03 03:11:00,
2013-05-02 23:21:00,66.0,32.0,-100.00,South,189,2.0,10.0,29,0.00,,,-99.99,,2013-05-03 03:21:00,
2013-05-02 23:33:00,66.0,32.0,-100.00,SSE,166,2.0,10.0,29,0.00,,,-99.99,,2013-05-03 03:33:00,
2013-05-02 23:43:00,66.0,32.0,-100.00,SE,125,2.0,10.0,29,0.00,,,-99.99,,2013-05-03 03:43:00,
2013-05-02 23:53:00,66.0,32.0,-100.00,SSE,168,4.0,10.0,28,0.00,,,-99.99,,2013-05-03 03:53:00,